Location: �chenoz-la-M�line
(47.6009°N, 6.1354°E)
Time: 19:34:50
(UTC+00:00)

Cosmos 1814 Rocket - Visible Passes

Search period start: 01 December 2021 00:00
Search period end: 11 December 2021 00:00
Orbit: 745 x 786 km, 74.1° (Epoch: 01 December)

Date Brightness Start Highest point End Pass type
(mag) Time Alt. Az. Time Alt. Az. Time Alt. Az.
01 Dec 6.3 03:03:50 19° E 03:03:50 19° E 03:05:45 10° ESE visible
01 Dec 4.1 04:44:07 50° WSW 04:44:07 50° WSW 04:48:44 10° S visible
01 Dec 4.5 17:37:22 10° SSE 17:42:05 35° ESE 17:42:23 35° E visible
01 Dec 5.6 19:19:14 10° SW 19:22:40 31° W 19:22:40 31° W visible
02 Dec 4.9 04:08:08 39° SSE 04:08:08 39° SSE 04:11:17 10° SSE visible
02 Dec 5.9 05:48:25 11° WSW 05:48:25 11° WSW 05:49:02 10° WSW visible
02 Dec 5.2 17:00:45 10° SE 17:04:38 21° E 17:06:10 19° ENE visible
02 Dec 4.4 18:41:03 10° SW 18:46:12 58° WNW 18:46:27 57° NW visible
03 Dec 6.2 03:32:11 18° SE 03:32:11 18° SE 03:33:28 10° SE visible
03 Dec 5.8 05:12:28 14° SW 05:12:28 14° SW 05:13:36 10° SW visible
03 Dec 5.8 16:25:06 10° ESE 16:27:16 13° E 16:29:25 10° ENE visible
03 Dec 3.9 18:03:12 10° SSW 18:08:27 88° ESE 18:10:08 44° NNE visible
03 Dec 6.5 19:47:48 10° W 19:50:24 17° WNW 19:50:24 17° WNW visible
04 Dec 6.1 04:36:33 12° SSW 04:36:33 12° SSW 04:37:02 10° SSW visible
04 Dec 4.1 17:25:43 10° S 17:30:48 54° ESE 17:33:44 24° NE visible
04 Dec 5.8 19:08:48 10° WSW 19:13:07 25° NW 19:14:00 24° NW visible
05 Dec 4.7 16:48:39 10° SSE 16:53:15 32° ESE 16:57:16 13° NE visible
05 Dec 5.2 18:30:18 10° SW 18:35:10 39° WNW 18:37:31 25° N visible
06 Dec 5.4 16:12:07 10° SE 16:15:47 20° E 16:19:28 10° NE visible
06 Dec 4.4 17:52:09 10° SW 17:57:19 62° WNW 18:00:57 19° NNE visible
06 Dec 6.7 19:38:19 10° WNW 19:40:27 12° NW 19:41:12 12° NNW visible
07 Dec 3.9 17:14:22 10° SSW 17:19:34 82° ESE 17:24:19 12° NNE visible
07 Dec 6.3 18:58:42 10° W 19:02:16 18° NW 19:04:34 14° NNW visible
08 Dec 4.2 16:36:56 10° S 16:41:56 49° ESE 16:46:55 10° NNE visible
08 Dec 5.8 18:19:48 10° WSW 18:24:12 27° NW 18:27:52 13° N visible
09 Dec 5.1 17:41:20 10° SW 17:46:15 41° WNW 17:51:08 10° N visible
10 Dec 4.3 17:03:15 10° SSW 17:08:25 67° WNW 17:13:35 10° NNE visible
10 Dec 6.6 18:49:06 10° WNW 18:51:30 13° NW 18:53:53 10° NNW visible
